TimeCDT,TemperatureF,Dew PointF,Humidity,Sea Level PressureIn,VisibilityMPH,Wind Direction,Wind SpeedMPH,Gust SpeedMPH,PrecipitationIn,Events,Conditions,WindDirDegrees,DateUTC
12:53 AM,77.0,62.1,60,30.06,10.0,NE,9.2,-,N/A,,Clear,50,2013-09-05 05:53:00
1:53 AM,73.0,64.0,73,30.07,10.0,Calm,Calm,-,N/A,,Clear,0,2013-09-05 06:53:00
2:53 AM,69.1,63.0,81,30.06,10.0,NNE,3.5,-,N/A,,Clear,20,2013-09-05 07:53:00
3:53 AM,70.0,63.0,78,30.06,10.0,North,3.5,-,N/A,,Clear,10,2013-09-05 08:53:00
4:53 AM,68.0,64.0,87,30.06,10.0,NNE,3.5,-,N/A,,Clear,30,2013-09-05 09:53:00
5:53 AM,68.0,64.0,87,30.07,10.0,North,3.5,-,N/A,,Clear,10,2013-09-05 10:53:00
6:53 AM,68.0,64.0,87,30.09,10.0,Calm,Calm,-,N/A,,Clear,0,2013-09-05 11:53:00
7:53 AM,72.0,64.9,78,30.11,10.0,Calm,Calm,-,N/A,,Partly Cloudy,0,2013-09-05 12:53:00
8:53 AM,77.0,66.0,69,30.11,10.0,Calm,Calm,-,N/A,,Clear,0,2013-09-05 13:53:00
9:53 AM,82.9,66.9,58,30.12,10.0,ENE,3.5,-,N/A,,Clear,70,2013-09-05 14:53:00
10:53 AM,87.1,68.0,53,30.12,10.0,Calm,Calm,-,N/A,,Clear,0,2013-09-05 15:53:00
11:53 AM,93.0,64.9,39,30.11,10.0,NNW,5.8,-,N/A,,Clear,330,2013-09-05 16:53:00
12:53 PM,93.9,61.0,33,30.09,10.0,Variable,3.5,-,N/A,,Clear,0,2013-09-05 17:53:00
1:53 PM,93.9,60.1,32,30.07,10.0,North,5.8,-,N/A,,Mostly Cloudy,350,2013-09-05 18:53:00
2:53 PM,98.1,61.0,29,30.04,10.0,Variable,3.5,-,N/A,,Clear,0,2013-09-05 19:53:00
3:53 PM,98.1,59.0,27,30.03,9.0,West,3.5,-,N/A,,Clear,280,2013-09-05 20:53:00
4:53 PM,97.0,57.9,27,30.01,10.0,NNW,5.8,-,N/A,,Clear,330,2013-09-05 21:53:00
5:53 PM,98.1,59.0,27,30.01,9.0,North,5.8,-,N/A,,Scattered Clouds,350,2013-09-05 22:53:00
6:53 PM,93.9,59.0,31,30.01,9.0,NNW,3.5,-,N/A,,Partly Cloudy,340,2013-09-05 23:53:00
7:53 PM,84.0,64.0,51,30.03,10.0,North,3.5,-,N/A,,Clear,360,2013-09-06 00:53:00
8:53 PM,82.0,63.0,52,30.04,10.0,NNE,4.6,-,N/A,,Clear,20,2013-09-06 01:53:00
9:53 PM,81.0,62.1,52,30.08,10.0,ENE,4.6,-,N/A,,Clear,70,2013-09-06 02:53:00
10:53 PM,79.0,64.0,60,30.09,10.0,East,4.6,-,N/A,,Clear,80,2013-09-06 03:53:00
11:53 PM,75.0,62.1,64,30.08,10.0,North,3.5,-,N/A,,Clear,350,2013-09-06 04:53:00